This is the latest recevied weather packets stored in our database for station/object IZ1GCT. If no packets are shown the sender has not sent any weather packets the latest 10 day(s).
| Time | Temp. | Humidity | Pressure | Rain* | Wind** | Luminosity | Snow |
|---|---|---|---|---|---|---|---|
| 1778124047 | 6.67° C | 86% | 1014.9 hPa | 0 mm | - | - | - |
| 1778123748 | 6.67° C | 86% | 1014.9 hPa | 0 mm | - | - | - |
| 1778123447 | 6.67° C | 86% | 1015.1 hPa | 0 mm | - | - | - |
| 1778123147 | 6.67° C | 85% | 1015 hPa | 0 mm | - | - | - |
| 1778122846 | 6.67° C | 84% | 1015.1 hPa | 0 mm | - | - | - |
| 1778122548 | 6.67° C | 84% | 1015.1 hPa | 0 mm | - | - | - |
| 1778122247 | 6.67° C | 84% | 1015.2 hPa | 0 mm | - | - | - |
| 1778121947 | 7.22° C | 85% | 1015.2 hPa | 0 mm | - | - | - |
| 1778121646 | 7.22° C | 87% | 1015.1 hPa | 0 mm | - | - | - |
| 1778121347 | 7.78° C | 84% | 1015.2 hPa | 0 mm | - | - | - |
| 1778121046 | 7.22° C | 91% | 1015.1 hPa | 0 mm | - | - | - |
| 1778120748 | 6.11° C | 92% | 1015.2 hPa | 0 mm | - | - | - |
| 1778120447 | 6.11° C | 92% | 1015.1 hPa | 0 mm | - | - | - |
| 1778120146 | 6.11° C | 92% | 1015.1 hPa | 0 mm | - | - | - |
| 1778119848 | 5.56° C | 91% | 1015.1 hPa | 0 mm | - | - | - |
| 1778119547 | 5.56° C | 91% | 1014.9 hPa | 0 mm | - | - | - |
| 1778119246 | 5.56° C | 91% | 1015 hPa | 0 mm | - | - | - |
| 1778118947 | 5.56° C | 91% | 1015 hPa | 0 mm | - | - | - |
| 1778118646 | 5.56° C | 90% | 1014.9 hPa | 0 mm | - | - | - |
| 1778118348 | 5.56° C | 90% | 1014.8 hPa | 0 mm | - | - | - |
| 1778118047 | 6.11° C | 90% | 1014.9 hPa | 0 mm | - | - | - |
| 1778117748 | 5.56° C | 90% | 1014.8 hPa | 0 mm | - | - | - |
| 1778117448 | 5.56° C | 90% | 1014.8 hPa | 0 mm | - | - | - |
| 1778117148 | 5.56° C | 90% | 1014.6 hPa | 0 mm | - | - | - |
| 1778116847 | 6.11° C | 90% | 1014.7 hPa | 0 mm | - | - | - |
* Rain latest hour (hover to see other rain measurements)
** Current wind speed in m/s (hover to see current wind gust speed)